Location: Hradec Kralove
(50.2170°N, 15.8330°E)
Time: 05:05:30
(UTC+02:00)

Explorer 7 - Pass Details

Date: 29 January 2023
Orbit: 478 x 657 km, 50.3° (Epoch: 25 March)

Event Time Altitude Azimuth Distance (km) Brightness Sun altitude
Rises 18:51:49 0° 285° (WNW) 2,914 11.8 -20.3°
Reaches altitude 10° 18:54:10 10° 279° (W) 2,028 10.8 -20.7°
Maximum altitude 18:58:38 44° 208° (SSW) 900 8.0 -21.4°
Enters shadow 19:00:39 28° 155° (SSE) 1,228 8.3 -21.7°
Drops below altitude 10° 19:03:11 10° 137° (SE) 2,073 - -22.1°
Sets 19:05:37 0° 131° (SE) 2,986 - -22.5°
